Valdosta, GA

9:36 PM EST on February 13, 2016 (GMT -0500)
Moody Air Force Base

Weather History for KVAD - February, 2014

Change the Weather History Date:

Tuesday, February 4, 2014

  Actual Average Record
Temperature  
Mean Temperature 72 °F -  
Max Temperature 82 °F 61 °F 82 °F (2014)
Min Temperature 62 °F 42 °F 26 °F (2009)
Cooling Degree Days 7    
Growing Degree Days 22 (Base 50)    
Moisture  
Dew Point 64 °F    
Average Humidity 94    
Maximum Humidity 100    
Minimum Humidity 48    
Precipitation  
Precipitation 0.00 in - - ()
Sea Level Pressure  
Sea Level Pressure 30.09 in    
Wind  
Wind Speed 3 mph (East)    
Max Wind Speed 13 mph    
Max Gust Speed 20 mph    
Visibility 5 miles    
Events Fog    
Averages and records for this station are not official NWS values.
T = Trace of Precipitation, MM = Missing Value Source: NWS Daily Summary

Daily Weather History Graph

Daily Weather History Graph

Search for Another Location

Airport or City:

Trip Planner

Search our weather history database for the weather conditions in past years. The results will help you decide how hot, cold, wet, or windy it might be!

Date:

Astronomy

Feb. 04, 2014 Rise Set
Actual Time 7:22 AM EST 6:11 PM EST
Civil Twilight 6:57 AM EST 6:36 PM EST
Nautical Twilight 6:28 AM EST 7:05 PM EST
Astronomical Twilight 6:00 AM EST 7:33 PM EST
Moon 10:24 AM EST (2/4) 11:37 PM EST (2/4)
Length of Visible Light 11h 38m
Length of Day
10h 48m
Waxing Crescent, 29% of the Moon is Illuminated
Feb 4
Waxing Crescent
Feb 6
First Quarter
Feb 14
Full
Feb 22
Last Quarter
Mar 1
New

Hourly Weather History & Observations

Time (EST) Temp. Heat Index Dew Point Humidity Pressure Visibility Wind Dir Wind Speed Gust Speed Precip Events Conditions
12:52 AM 62.6 °F - 62.6 °F 100% 30.08 in 9.0 mi North 2.3 mph - N/A   Overcast
12:58 AM 63.3 °F - 63.3 °F 100% 30.09 in 8.0 mi North 3.5 mph - N/A   Overcast
1:14 AM 62.6 °F - 62.6 °F 100% 30.09 in 8.0 mi North 3.5 mph - N/A   Overcast
1:18 AM 62.6 °F - 62.6 °F 100% 30.08 in 9.0 mi North 2.3 mph - N/A   Overcast
1:22 AM 62.6 °F - 62.6 °F 100% 30.09 in 9.0 mi North 2.3 mph - N/A   Overcast
1:24 AM 62.6 °F - 62.6 °F 100% 30.09 in 9.0 mi North 2.3 mph - N/A   Overcast
1:30 AM 62.6 °F - 62.6 °F 100% 30.09 in 9.0 mi NNW 1.2 mph - N/A   Overcast
1:34 AM 62.6 °F - 62.6 °F 100% 30.09 in 3.0 mi NW 1.2 mph - N/A   Overcast
1:36 AM 62.6 °F - 62.6 °F 100% 30.09 in 1.8 mi Calm Calm - N/A   Overcast
1:38 AM 62.6 °F - 62.6 °F 100% 30.09 in 1.5 mi Calm Calm - N/A   Overcast
1:40 AM 62.6 °F - 62.6 °F 100% 30.09 in 1.0 mi Calm Calm - N/A   Overcast
1:42 AM 62.6 °F - 62.6 °F 100% 30.09 in 1.0 mi Calm Calm - N/A   Overcast
1:44 AM 62.6 °F - 62.6 °F 100% 30.09 in 1.0 mi Calm Calm - N/A   Overcast
1:46 AM 62.6 °F - 62.6 °F 100% 30.09 in 1.2 mi Calm Calm - N/A   Overcast
1:54 AM 62.6 °F - 62.6 °F 100% 30.09 in 1.5 mi Calm Calm - N/A   Overcast
1:58 AM 62.6 °F - 62.6 °F 100% 30.09 in 2.5 mi Calm Calm - N/A   Overcast
2:00 AM 62.6 °F - 62.6 °F 100% 30.09 in 5.0 mi East 1.2 mph - N/A   Overcast
2:02 AM 62.6 °F - 62.6 °F 100% 30.09 in 8.0 mi Calm Calm - N/A   Overcast
2:04 AM 62.6 °F - 62.6 °F 100% 30.09 in 8.0 mi Calm Calm - N/A   Overcast
2:06 AM 62.6 °F - 62.6 °F 100% 30.09 in 6.0 mi East 1.2 mph - N/A   Overcast
2:08 AM 62.6 °F - 62.6 °F 100% 30.09 in 5.0 mi East 2.3 mph - N/A   Overcast
2:10 AM 62.6 °F - 62.6 °F 100% 30.09 in 4.0 mi ESE 2.3 mph - N/A   Overcast
2:14 AM 62.6 °F - 62.6 °F 100% 30.09 in 4.0 mi Calm Calm - N/A   Overcast
2:18 AM 62.6 °F - 62.6 °F 100% 30.09 in 6.0 mi Calm Calm - N/A   Overcast
2:20 AM 62.6 °F - 62.6 °F 100% 30.09 in 6.0 mi Calm Calm - N/A   Overcast
2:26 AM 62.6 °F - 62.6 °F 100% 30.09 in 7.0 mi West 2.3 mph - N/A   Overcast
2:32 AM 62.6 °F - 62.6 °F 100% 30.09 in 9.0 mi Calm Calm - N/A   Overcast
2:58 AM 63.1 °F - 63.1 °F 100% 30.09 in 10.0 mi SSE 3.5 mph - N/A   Overcast
3:14 AM 64.4 °F - 64.4 °F 100% 30.09 in 10.0 mi South 2.3 mph - N/A   Overcast
3:26 AM 64.4 °F - 64.4 °F 100% 30.09 in 10.0 mi SSW 2.3 mph - N/A   Overcast
3:46 AM 64.4 °F - 64.4 °F 100% 30.09 in 10.0 mi Calm Calm - N/A   Overcast
3:58 AM 64.0 °F - 64.0 °F 100% 30.09 in 10.0 mi Calm Calm - N/A   Overcast
4:06 AM 64.4 °F - 64.4 °F 100% 30.09 in 6.0 mi Calm Calm - N/A   Overcast
4:12 AM 64.4 °F - 64.4 °F 100% 30.09 in 7.0 mi ENE 2.3 mph - N/A   Overcast
4:16 AM 64.4 °F - 64.4 °F 100% 30.09 in 10.0 mi Calm Calm - N/A   Overcast
4:24 AM 64.4 °F - 64.4 °F 100% 30.08 in 9.0 mi NE 2.3 mph - N/A   Overcast
4:50 AM 64.4 °F - 64.4 °F 100% 30.08 in 7.0 mi East 3.5 mph - N/A   Overcast
4:58 AM 63.7 °F - 63.7 °F 100% 30.09 in 4.0 mi ESE 4.6 mph - N/A   Overcast
5:02 AM 64.4 °F - 64.4 °F 100% 30.09 in 2.0 mi ESE 4.6 mph - N/A   Overcast
5:04 AM 64.4 °F - 64.4 °F 100% 30.08 in 1.8 mi ESE 4.6 mph - N/A   Overcast
5:08 AM 64.4 °F - 64.4 °F 100% 30.08 in 1.2 mi ESE 3.5 mph - N/A   Overcast
5:12 AM 64.4 °F - 64.4 °F 100% 30.09 in 1.0 mi ESE 2.3 mph - N/A   Overcast
5:14 AM 64.4 °F - 64.4 °F 100% 30.09 in 1.0 mi East 2.3 mph - N/A   Overcast
5:16 AM 64.4 °F - 64.4 °F 100% 30.09 in 0.8 mi Calm Calm - N/A   Mist
5:18 AM 64.4 °F - 64.4 °F 100% 30.09 in 0.5 mi Calm Calm - N/A Fog Fog
5:20 AM 64.4 °F - 64.4 °F 100% 30.09 in 0.5 mi Calm Calm - N/A Fog Fog
5:50 AM 64.4 °F - 64.4 °F 100% 30.09 in 0.8 mi Calm Calm - N/A   Mist
5:54 AM 64.4 °F - 64.4 °F 100% 30.09 in 0.8 mi East 2.3 mph - N/A   Mist
5:56 AM 64.4 °F - 64.4 °F 100% 30.09 in 0.5 mi East 2.3 mph - N/A Fog Fog
5:58 AM 64.4 °F - 64.4 °F 100% 30.09 in 0.5 mi East 2.3 mph - N/A Fog Fog
6:26 AM 64.4 °F - 64.4 °F 100% 30.10 in 0.8 mi East 2.3 mph - N/A   Mist
6:28 AM 64.4 °F - 64.4 °F 100% 30.10 in 0.8 mi East 3.5 mph - N/A   Mist
6:44 AM 64.4 °F - 64.4 °F 100% 30.10 in 0.8 mi East 2.3 mph - N/A   Mist
6:46 AM 64.4 °F - 64.4 °F 100% 30.10 in 1.0 mi East 2.3 mph - N/A   Mist
6:48 AM 64.4 °F - 64.4 °F 100% 30.10 in 1.0 mi East 2.3 mph - N/A   Overcast
6:50 AM 64.4 °F - 64.4 °F 100% 30.10 in 1.0 mi East 1.2 mph - N/A   Overcast
6:52 AM 64.4 °F - 64.4 °F 100% 30.10 in 1.0 mi ESE 1.2 mph - N/A   Overcast
6:58 AM 64.4 °F - 64.4 °F 100% 30.12 in 1.0 mi ESE 2.3 mph - N/A   Overcast
7:02 AM 64.4 °F - 64.4 °F 100% 30.10 in 1.2 mi ESE 2.3 mph - N/A   Overcast
7:14 AM 64.4 °F - 64.4 °F 100% 30.11 in 1.0 mi East 3.5 mph - N/A   Overcast
7:16 AM 64.4 °F - 64.4 °F 100% 30.11 in 0.8 mi East 3.5 mph - N/A   Overcast
7:20 AM 64.4 °F - 64.4 °F 100% 30.11 in 0.5 mi ESE 2.3 mph - N/A Fog Fog
7:32 AM 64.4 °F - 64.4 °F 100% 30.11 in 0.8 mi Calm Calm - N/A   Overcast
7:44 AM 64.4 °F - 64.4 °F 100% 30.11 in 0.8 mi East 3.5 mph - N/A   Overcast
7:54 AM 64.4 °F - 64.4 °F 100% 30.11 in 1.0 mi East 3.5 mph - N/A   Overcast
7:58 AM 64.4 °F - 64.4 °F 100% 30.13 in 1.0 mi East 2.3 mph - N/A   Overcast
8:00 AM 64.4 °F - 64.4 °F 100% 30.12 in 0.8 mi East 3.5 mph - N/A   Overcast
8:04 AM 64.4 °F - 64.4 °F 100% 30.12 in 0.8 mi East 2.3 mph - N/A   Overcast
8:06 AM 64.4 °F - 64.4 °F 100% 30.12 in 0.5 mi East 3.5 mph - N/A Fog Fog
8:14 AM 64.4 °F - 64.4 °F 100% 30.12 in 0.5 mi East 3.5 mph - N/A Fog Fog
8:18 AM 64.4 °F - 64.4 °F 100% 30.12 in 0.5 mi East 3.5 mph - N/A Fog Fog
8:36 AM 64.4 °F - 64.4 °F 100% 30.12 in 0.5 mi East 3.5 mph - N/A Fog Fog
8:42 AM 64.4 °F - 64.4 °F 100% 30.12 in 0.8 mi East 5.8 mph - N/A   Mist
8:44 AM 64.4 °F - 64.4 °F 100% 30.12 in 0.8 mi ESE 6.9 mph - N/A   Mist
8:48 AM 64.4 °F - 64.4 °F 100% 30.13 in 0.8 mi East 4.6 mph - N/A   Overcast
8:52 AM 64.4 °F - 64.4 °F 100% 30.13 in 0.8 mi East 6.9 mph - N/A   Overcast
8:54 AM 64.4 °F - 64.4 °F 100% 30.13 in 1.0 mi East 5.8 mph - N/A   Overcast
8:56 AM 64.4 °F - 64.4 °F 100% 30.13 in 1.0 mi East 6.9 mph - N/A   Overcast
8:58 AM 64.8 °F - 64.8 °F 100% 30.14 in 1.0 mi East 5.8 mph - N/A   Overcast
9:00 AM 64.4 °F - 64.4 °F 100% 30.13 in 1.2 mi East 5.8 mph - N/A   Overcast
9:02 AM 64.4 °F - 64.4 °F 100% 30.13 in 1.5 mi ESE 5.8 mph - N/A   Overcast
9:12 AM 64.4 °F - 64.4 °F 100% 30.13 in 2.0 mi East 5.8 mph - N/A   Overcast
9:18 AM 64.4 °F - 64.4 °F 100% 30.13 in 3.0 mi East 5.8 mph - N/A   Overcast
9:42 AM 64.4 °F - 64.4 °F 100% 30.14 in 8.0 mi East 5.8 mph - N/A   Overcast
9:54 AM 66.2 °F - 66.2 °F 100% 30.14 in 3.0 mi East 5.8 mph - N/A   Overcast
9:58 AM 65.3 °F - 65.3 °F 100% 30.14 in 3.0 mi East 3.5 mph - N/A   Overcast
10:00 AM 66.2 °F - 66.2 °F 100% 30.14 in 3.0 mi East 4.6 mph - N/A   Overcast
10:40 AM 66.2 °F - 66.2 °F 100% 30.15 in 10.0 mi ENE 5.8 mph - N/A   Overcast
10:46 AM 66.2 °F - 66.2 °F 100% 30.14 in 10.0 mi ESE 5.8 mph - N/A   Overcast
10:54 AM 68.0 °F - 68.0 °F 100% 30.14 in 10.0 mi Variable 4.6 mph - N/A   Overcast
10:58 AM 67.5 °F - 67.5 °F 100% 30.14 in 10.0 mi Variable 4.6 mph - N/A   Overcast
11:08 AM 68.0 °F - 68.0 °F 100% 30.14 in 10.0 mi East 5.8 mph - N/A   Overcast
11:26 AM 69.8 °F - 66.2 °F 88% 30.13 in 10.0 mi Variable 2.3 mph - N/A   Overcast
11:34 AM 69.8 °F - 66.2 °F 88% 30.12 in 10.0 mi East 6.9 mph - N/A   Overcast
11:56 AM 71.6 °F - 66.2 °F 83% 30.11 in 10.0 mi East 8.1 mph - N/A   Mostly Cloudy
11:58 AM 72.1 °F - 65.5 °F 79% 30.12 in 10.0 mi East 6.9 mph - N/A   Mostly Cloudy
12:18 PM 73.4 °F - 64.4 °F 73% 30.10 in 10.0 mi Variable 3.5 mph - N/A   Mostly Cloudy
12:50 PM 77.0 °F - 64.4 °F 65% 30.07 in 10.0 mi SSE 5.8 mph - N/A   Mostly Cloudy
12:58 PM 77.0 °F - 64.9 °F 66% 30.08 in 10.0 mi Variable 2.3 mph - N/A   Partly Cloudy
1:58 PM 81.5 °F 82.5 °F 62.1 °F 52% 30.02 in 10.0 mi SSE 10.4 mph - N/A   Scattered Clouds
2:40 PM 82.4 °F 82.9 °F 60.8 °F 48% 30.00 in 10.0 mi SE 12.7 mph 19.6 mph N/A   Mostly Cloudy
2:46 PM 82.4 °F 82.9 °F 60.8 °F 48% 30.00 in 10.0 mi SE 8.1 mph 19.6 mph N/A   Mostly Cloudy
2:59 PM 82.2 °F 82.9 °F 61.2 °F 49% 30.01 in 10.0 mi SE 9.2 mph - N/A   Mostly Cloudy
3:09 PM 82.4 °F 82.9 °F 60.8 °F 48% 30.00 in 10.0 mi SSE 10.4 mph - N/A   Mostly Cloudy
3:36 PM 82.4 °F 83.9 °F 64.4 °F 54% 30.00 in 7.0 mi SE 8.1 mph - N/A   Light Drizzle
3:45 PM 78.8 °F - 64.4 °F 61% 30.00 in 10.0 mi SE 6.9 mph - N/A   Partly Cloudy
3:58 PM 79.7 °F - 63.3 °F 57% 30.01 in 10.0 mi SSE 10.4 mph - 0.00 in   Partly Cloudy
4:58 PM 77.2 °F - 63.5 °F 63% 30.01 in 10.0 mi SE 8.1 mph - N/A   Scattered Clouds
5:58 PM 74.7 °F - 63.5 °F 68% 30.01 in 10.0 mi East 9.2 mph - N/A   Scattered Clouds
6:58 PM 70.7 °F - 63.7 °F 78% 30.03 in 10.0 mi East 8.1 mph - N/A   Mostly Cloudy
7:58 PM 68.7 °F - 63.7 °F 84% 30.05 in 10.0 mi East 8.1 mph - N/A   Overcast
8:58 PM 66.6 °F - 63.5 °F 90% 30.06 in 10.0 mi ESE 4.6 mph - N/A   Mostly Cloudy
9:58 PM 65.1 °F - 64.8 °F 99% 30.04 in 10.0 mi ESE 5.8 mph - N/A   Mostly Cloudy
9:59 PM 64.4 °F - 64.4 °F 100% 30.04 in 10.0 mi ESE 5.8 mph - N/A   Overcast
10:11 PM 64.4 °F - 64.4 °F 100% 30.03 in 10.0 mi ESE 6.9 mph - N/A   Overcast
10:25 PM 64.4 °F - 64.4 °F 100% 30.03 in 10.0 mi ESE 6.9 mph - N/A   Overcast
10:31 PM 64.4 °F - 64.4 °F 100% 30.03 in 9.0 mi ESE 4.6 mph - N/A   Overcast
10:58 PM 64.4 °F - 64.0 °F 99% 30.04 in 8.0 mi ESE 5.8 mph - N/A   Overcast
11:58 PM 64.4 °F - 64.4 °F 100% 30.02 in 7.0 mi ESE 5.8 mph - N/A   Overcast